Location: Bagnara
(41.0500°N, 14.7833°E)
Time: 09:04:35
(UTC+00:00)

Cosmos 1814 Rocket - Pass Details

Date: 20 June 2021
Orbit: 745 x 787 km, 74.1° (Epoch: 26 July)

Event Time Altitude Azimuth Distance (km) Brightness Sun altitude
Exits shadow 00:51:53 45° 217° (SW) 1,031 4.2 -20.7°
Maximum altitude 00:53:29 74° 290° (WNW) 791 4.0 -20.6°
Drops below altitude 10° 00:58:39 10° 16° (NNE) 2,282 7.6 -20.1°
Sets 01:01:01 0° 18° (NNE) 3,206 8.7 -19.9°
